Jefferson, NC

10:19 PM EDT on September 25, 2017 (GMT -0400)
Ashe County

Weather History for KGEV - March, 2013

Change the Weather History Date:

Wednesday, March 27, 2013

  Actual Average Record
Temperature  
Mean Temperature 28 °F -  
Max Temperature 32 °F 55 °F 77 °F (2007)
Min Temperature 25 °F 32 °F 19 °F (2001)
Degree Days  
Heating Degree Days 36    
Moisture  
Dew Point 16 °F    
Average Humidity 61    
Maximum Humidity 82    
Minimum Humidity 49    
Precipitation  
Precipitation 0.00 in - - ()
Sea Level Pressure  
Sea Level Pressure 30.12 in    
Wind  
Wind Speed 11 mph (NW)    
Max Wind Speed 17 mph    
Max Gust Speed 33 mph    
Visibility 9 miles    
Events Snow    
Averages and records for this station are not official NWS values.
T = Trace of Precipitation, MM = Missing Value Source: NWS Daily Summary

Daily Weather History Graph

Daily Weather History Graph

Search for Another Location

Airport or City:

Trip Planner

Search our weather history database for the weather conditions in past years. The results will help you decide how hot, cold, wet, or windy it might be!

Date:

Astronomy

Mar. 27, 2013 Rise Set
Actual Time 7:18 AM EDT 7:43 PM EDT
Civil Twilight 6:52 AM EDT 8:09 PM EDT
Nautical Twilight 6:22 AM EDT 8:39 PM EDT
Astronomical Twilight 5:51 AM EDT 9:10 PM EDT
Moon 8:23 PM EDT (3/27) 7:10 AM EDT (3/27)
Length of Visible Light 13h 16m
Length of Day
12h 25m
Full, 100% of the Moon is Illuminated
Mar 27
Full
Apr 3
Last Quarter
Apr 10
New
Apr 18
First Quarter
Apr 25
Full

Hourly Weather History & Observations

Time (EDT) Temp. Windchill Dew Point Humidity Pressure Visibility Wind Dir Wind Speed Gust Speed Precip Events Conditions
12:15 AM 28.4 °F 16.2 °F 20.3 °F 72% 30.04 in 7.0 mi WNW 17.3 mph 31.1 mph N/A Snow Light Snow
12:35 AM 28.4 °F 17.0 °F 20.1 °F 71% 30.06 in 10.0 mi NW 15.0 mph 33.4 mph N/A Snow Light Snow
12:55 AM 28.0 °F 17.0 °F 21.0 °F 75% 30.07 in 4.0 mi NW 13.8 mph 23.0 mph N/A Snow Light Snow
1:15 AM 27.5 °F 21.1 °F 22.1 °F 80% 30.07 in 3.0 mi NW 5.8 mph - N/A Snow Light Snow
1:55 AM 27.3 °F 17.7 °F 21.6 °F 79% 30.07 in 10.0 mi NW 10.4 mph 17.3 mph N/A Snow Light Snow
2:15 AM 27.1 °F 18.2 °F 22.1 °F 81% 30.07 in 2.0 mi NW 9.2 mph 16.1 mph N/A Snow Light Snow
2:35 AM 27.5 °F 18.0 °F 20.7 °F 75% 30.06 in 10.0 mi NW 10.4 mph 21.9 mph N/A Snow Light Snow
3:15 AM 26.2 °F 13.8 °F 21.6 °F 82% 30.06 in 1.2 mi NNW 16.1 mph 19.6 mph N/A Snow Light Snow
3:35 AM 26.2 °F 14.7 °F 20.1 °F 78% 30.06 in 5.0 mi NNW 13.8 mph 21.9 mph N/A Snow Light Snow
3:55 AM 26.2 °F 17.1 °F 19.9 °F 77% 30.06 in 5.0 mi NW 9.2 mph 17.3 mph N/A Snow Light Snow
4:15 AM 26.2 °F 17.1 °F 19.2 °F 75% 30.05 in 5.0 mi NNW 9.2 mph 21.9 mph N/A Snow Light Snow
4:35 AM 26.1 °F 18.4 °F 18.3 °F 73% 30.06 in 10.0 mi NNW 6.9 mph 19.6 mph N/A   Overcast
4:55 AM 26.2 °F 20.7 °F 16.7 °F 67% 30.06 in 10.0 mi NNW 4.6 mph - N/A   Overcast
5:15 AM 26.4 °F 19.8 °F 16.5 °F 66% 30.06 in 10.0 mi NW 5.8 mph - N/A   Overcast
5:35 AM 26.2 °F 20.7 °F 17.1 °F 68% 30.06 in 7.0 mi North 4.6 mph 19.6 mph N/A Snow Light Snow
5:55 AM 25.7 °F 14.0 °F 18.0 °F 73% 30.06 in 5.0 mi NW 13.8 mph 20.7 mph N/A Snow Light Snow
6:15 AM 25.3 °F 15.3 °F 18.1 °F 74% 30.07 in 4.0 mi NW 10.4 mph 18.4 mph N/A Snow Light Snow
6:35 AM 25.5 °F 14.9 °F 17.6 °F 72% 30.07 in 7.0 mi NNW 11.5 mph 18.4 mph N/A Snow Light Snow
6:55 AM 25.5 °F 14.9 °F 17.1 °F 70% 30.08 in 10.0 mi WNW 11.5 mph 17.3 mph N/A Snow Light Snow
7:15 AM 25.5 °F 12.9 °F 16.9 °F 70% 30.08 in 7.0 mi WNW 16.1 mph 23.0 mph N/A Snow Light Snow
7:35 AM 25.5 °F 13.8 °F 14.5 °F 63% 30.09 in 10.0 mi NW 13.8 mph 25.3 mph N/A Snow Light Snow
7:55 AM 25.3 °F 14.1 °F 14.9 °F 65% 30.09 in 10.0 mi NW 12.7 mph 19.6 mph N/A Snow Light Snow
8:15 AM 25.5 °F 15.5 °F 15.1 °F 65% 30.10 in 10.0 mi NW 10.4 mph 21.9 mph N/A Snow Light Snow
8:35 AM 25.7 °F 17.1 °F 15.4 °F 65% 30.11 in 10.0 mi WNW 8.1 mph 24.2 mph N/A Snow Light Snow
8:55 AM 25.5 °F 15.5 °F 15.6 °F 66% 30.11 in 10.0 mi NW 10.4 mph 20.7 mph N/A Snow Light Snow
9:15 AM 25.5 °F 14.3 °F 14.4 °F 63% 30.11 in 10.0 mi WNW 12.7 mph 27.6 mph N/A   Overcast
9:35 AM 25.7 °F 14.6 °F 14.7 °F 63% 30.12 in 10.0 mi NW 12.7 mph 27.6 mph N/A Snow Light Snow
9:55 AM 26.1 °F 14.0 °F 14.9 °F 63% 30.12 in 10.0 mi NW 15.0 mph 23.0 mph N/A   Overcast
10:15 AM 26.1 °F 13.6 °F 15.3 °F 64% 30.13 in 10.0 mi NW 16.1 mph 26.5 mph N/A Snow Light Snow
10:35 AM 26.4 °F 13.6 °F 15.6 °F 64% 30.13 in 10.0 mi NNW 17.3 mph 27.6 mph N/A Snow Light Snow
10:55 AM 26.6 °F 16.8 °F 14.4 °F 60% 30.14 in 10.0 mi NW 10.4 mph 25.3 mph N/A   Overcast
11:15 AM 27.0 °F 18.7 °F 14.9 °F 60% 30.15 in 10.0 mi NW 8.1 mph - N/A   Overcast
11:35 AM 27.3 °F 19.9 °F 14.5 °F 59% 30.15 in 10.0 mi NW 6.9 mph 17.3 mph N/A   Overcast
11:55 AM 27.7 °F 18.2 °F 14.9 °F 59% 30.16 in 10.0 mi NW 10.4 mph 18.4 mph N/A   Overcast
12:15 PM 28.0 °F 20.0 °F 15.1 °F 58% 30.16 in 10.0 mi NNW 8.1 mph 16.1 mph N/A   Overcast
12:35 PM 28.6 °F 18.7 °F 15.4 °F 58% 30.16 in 10.0 mi WNW 11.5 mph 16.1 mph N/A   Overcast
1:15 PM 29.1 °F 20.0 °F 15.1 °F 56% 30.17 in 10.0 mi NW 10.4 mph 17.3 mph N/A   Overcast
1:35 PM 29.5 °F 21.1 °F 15.3 °F 55% 30.17 in 10.0 mi NW 9.2 mph 21.9 mph N/A   Overcast
1:55 PM 29.8 °F 21.5 °F 15.1 °F 54% 30.17 in 10.0 mi NNW 9.2 mph 17.3 mph N/A   Overcast
2:15 PM 30.2 °F 19.8 °F 15.6 °F 55% 30.16 in 10.0 mi NW 13.8 mph 26.5 mph N/A Snow Light Snow
2:35 PM 30.6 °F 22.4 °F 16.0 °F 55% 30.16 in 10.0 mi NW 9.2 mph 17.3 mph N/A   Overcast
2:55 PM 30.6 °F 22.4 °F 16.7 °F 56% 30.16 in 10.0 mi NNW 9.2 mph - N/A   Overcast
3:15 PM 30.9 °F 21.7 °F 16.0 °F 54% 30.15 in 10.0 mi WNW 11.5 mph 25.3 mph N/A   Overcast
3:35 PM 31.1 °F 24.5 °F 15.8 °F 53% 30.15 in 10.0 mi NNW 6.9 mph 18.4 mph N/A   Overcast
3:55 PM 31.5 °F 22.9 °F 15.3 °F 51% 30.14 in 10.0 mi NNW 10.4 mph 16.1 mph N/A   Overcast
4:15 PM 31.8 °F 23.9 °F 14.7 °F 49% 30.13 in 10.0 mi NW 9.2 mph 20.7 mph N/A   Overcast
4:35 PM 32.2 °F 24.4 °F 14.9 °F 49% 30.13 in 10.0 mi NNW 9.2 mph - N/A   Overcast
4:55 PM 32.0 °F 26.4 °F 15.1 °F 50% 30.13 in 10.0 mi NW 5.8 mph - N/A   Mostly Cloudy
5:15 PM 32.4 °F 23.5 °F 15.3 °F 49% 30.13 in 10.0 mi NW 11.5 mph 19.6 mph N/A   Mostly Cloudy
5:35 PM 32.0 °F 24.2 °F 15.3 °F 50% 30.14 in 10.0 mi NW 9.2 mph 17.3 mph N/A   Mostly Cloudy
6:15 PM 32.5 °F 25.5 °F 15.4 °F 49% 30.15 in 10.0 mi North 8.1 mph 19.6 mph N/A   Overcast
6:35 PM 32.0 °F 27.5 °F 15.4 °F 51% 30.15 in 10.0 mi WNW 4.6 mph - N/A   Overcast
7:15 PM 32.0 °F 23.6 °F 14.9 °F 49% 30.16 in 10.0 mi NW 10.4 mph 19.6 mph N/A   Overcast
7:35 PM 31.3 °F 23.9 °F 14.9 °F 51% 30.16 in 10.0 mi NW 8.1 mph 19.6 mph N/A   Overcast
7:55 PM 31.1 °F 27.7 °F 14.9 °F 51% 30.16 in 10.0 mi North 3.5 mph - N/A   Overcast
8:15 PM 30.7 °F 26.0 °F 14.5 °F 51% 30.16 in 10.0 mi NW 4.6 mph - N/A   Overcast
8:35 PM 30.4 °F 25.6 °F 14.7 °F 52% 30.16 in 10.0 mi NW 4.6 mph - N/A   Overcast
8:55 PM 30.2 °F 25.4 °F 14.2 °F 51% 30.16 in 10.0 mi NW 4.6 mph - N/A   Scattered Clouds
9:15 PM 30.2 °F 25.4 °F 14.0 °F 51% 30.16 in 10.0 mi NW 4.6 mph - N/A   Clear
9:35 PM 30.2 °F 22.6 °F 13.8 °F 51% 30.16 in 10.0 mi WNW 8.1 mph - N/A   Clear
9:55 PM 30.0 °F - 13.6 °F 51% 30.16 in 10.0 mi Calm Calm - N/A   Clear
10:15 PM 29.8 °F - 14.0 °F 52% 30.16 in 10.0 mi Calm Calm - N/A   Clear
10:35 PM 29.5 °F 25.9 °F 13.6 °F 52% 30.16 in 10.0 mi WNW 3.5 mph - N/A   Clear
10:55 PM 29.3 °F - 13.5 °F 52% 30.17 in 10.0 mi Calm Calm - N/A   Scattered Clouds
11:15 PM 29.3 °F 24.3 °F 14.0 °F 53% 30.16 in 10.0 mi NNW 4.6 mph - N/A   Mostly Cloudy
11:35 PM 29.1 °F 19.4 °F 14.5 °F 55% 30.16 in 10.0 mi NW 11.5 mph 17.3 mph N/A   Mostly Cloudy
11:55 PM 29.1 °F 23.0 °F 14.5 °F 55% 30.16 in 10.0 mi WNW 5.8 mph - N/A   Mostly Cloudy